Location: Izdebno
(52.6670°N, 16.2170°E)
Time: 07:24:54
(UTC+02:00)

Vanguard 1 - Pass Details

Date: 27 February 2024
Orbit: 653 x 3825 km, 34.2° (Epoch: 22 April)

Event Time Altitude Azimuth Distance (km) Brightness Sun altitude
Rises 23:24:53 0° 266° (W) 6,526 14.4 -44.7°
Reaches altitude 10° 23:29:12 10° 259° (W) 5,881 14.0 -44.9°
Enters shadow 23:37:50 29° 236° (SW) 5,023 13.3 -45.2°
